DW4326 Weather Reports


Display with metric or nautical units.
time (UTC)temp
F
wind
direction
speed
MPH
gust
MPH
rain 1hr
in
rain 24hr
in
rain mn
in
humidity
%
barometer
mb
20260507114507 42 5 1.0 5.0 0.01 0.63 0.01 98 1007.1
20260507113005 41 310 0.0 1.0 0.01 0.63 0.01 98 1007.0
20260507112231 41 16 0.0 0.0 0.01 0.63 0.01 98 1007.0
20260507110001 40 16 0.0 0.0 0.01 0.63 0.01 98 1007.1
20260507104500 40 16 0.0 0.0 0.00 0.62 0.00 98 1007.2
20260507102959 40 16 0.0 0.0 0.00 0.62 0.00 98 1007.0
20260507101500 39 16 0.0 0.0 0.00 0.62 0.00 98 1006.9
20260507100000 39 16 0.0 0.0 0.00 0.62 0.00 98 1006.6
20260507094500 39 16 0.0 0.0 0.00 0.62 0.00 97 1006.7
20260507093000 39 16 0.0 0.0 0.00 0.62 0.00 97 1006.9
20260507091459 39 16 0.0 0.0 0.00 0.62 0.00 97 1006.9
20260507090000 39 16 0.0 0.0 0.00 0.62 0.00 97 1007.1
20260507084459 40 16 0.0 0.0 0.00 0.62 0.00 97 1007.2
20260507083001 40 16 0.0 0.0 0.00 0.62 0.00 97 1007.0
20260507081453 40 16 0.0 0.0 0.00 0.62 0.00 97 1007.2
20260507075953 40 16 0.0 0.0 0.00 0.62 0.00 98 1007.3
20260507074446 40 16 0.0 0.0 0.00 0.62 0.00 97 1007.0
20260507072944 41 16 0.0 0.0 0.00 0.62 0.00 97 1006.9
20260507071442 41 16 0.0 0.0 0.00 0.62 0.00 97 1006.6
20260507065939 41 16 0.0 0.0 0.00 0.62 0.00 97 1006.6
20260507064439 42 16 0.0 0.0 0.00 0.62 0.00 97 1006.7
20260507062938 42 16 0.0 0.0 0.00 0.62 0.00 97 1006.5
20260507062208 42 16 0.0 0.0 0.00 0.62 0.00 97 1006.5
20260507055936 42 16 0.0 0.0 0.00 0.62 0.00 97 1006.9
20260507054436 42 16 0.0 0.0 0.00 0.62 0.00 96 1007.3
20260507052929 42 16 0.0 0.0 0.00 0.62 0.00 96 1007.0
20260507051431 42 16 0.0 0.0 0.00 0.63 0.00 96 1007.1
20260507045923 42 16 0.0 0.0 0.00 0.63 0.00 96 1007.1
20260507044424 43 16 0.0 0.0 0.00 0.63 0.00 96 1007.0
20260507042922 44 16 0.0 0.0 0.00 0.63 0.00 96 1007.0
20260507041419 44 16 0.0 0.0 0.00 0.63 0.00 96 1007.0
20260507035918 44 16 0.0 0.0 0.00 0.63 0.63 96 1006.8
20260507034417 45 16 0.0 0.0 0.00 0.64 0.63 96 1006.9
20260507032918 45 16 0.0 0.0 0.00 0.64 0.63 96 1007.0
20260507031414 45 16 0.0 0.0 0.00 0.64 0.63 96 1007.0
20260507025915 46 16 0.0 0.0 0.00 0.64 0.63 96 1007.1
20260507024412 46 16 0.0 0.0 0.00 0.64 0.63 96 1007.1
20260507022912 46 16 0.0 0.0 0.01 0.64 0.63 96 1007.3
20260507022139 46 16 0.0 0.0 0.01 0.64 0.63 96 1007.5
20260507015907 46 16 0.0 0.0 0.01 0.64 0.63 96 1007.3
20260507014400 46 16 0.0 0.0 0.02 0.64 0.63 96 1007.2
20260507012902 46 16 0.0 4.0 0.01 0.63 0.62 95 1007.0
20260507011354 47 17 0.0 0.0 0.02 0.63 0.62 96 1007.1
20260507005855 47 17 0.0 0.0 0.02 0.63 0.62 95 1007.2
20260507004349 47 17 0.0 0.0 0.01 0.62 0.61 95 1006.6
20260507002849 47 15 0.0 4.0 0.01 0.62 0.61 95 1006.3
20260507002113 47 336 0.0 4.0 0.00 0.61 0.60 95 1006.2
20260507000617 48 20 1.0 4.0 0.00 0.61 0.60 95 1005.8
20260506234336 48 338 2.0 8.0 0.00 0.61 0.60 94 1005.3
20260506232836 49 347 1.0 9.0 0.00 0.61 0.60 94 1005.0
20260506232102 49 0 1.0 6.0 0.00 0.61 0.60 95 1005.1
20260506225831 49 331 0.0 0.0 0.00 0.61 0.60 96 1004.7
20260506224327 49 305 0.0 0.0 0.00 0.61 0.60 95 1004.7
20260506222829 49 306 0.0 2.0 0.00 0.61 0.60 94 1004.6
20260506221329 50 306 0.0 5.0 0.00 0.61 0.60 94 1004.4
20260506215827 50 20 2.0 5.0 0.00 0.61 0.60 94 1004.2
20260506214327 51 302 1.0 4.0 0.00 0.61 0.60 94 1004.0
20260506212822 52 351 2.0 5.0 0.02 0.61 0.60 94 1004.1
20260506211322 52 13 2.0 5.0 0.07 0.61 0.60 94 1004.0
20260506205821 53 11 2.0 8.0 0.09 0.61 0.60 94 1003.9
20260506204322 54 320 2.0 8.0 0.10 0.62 0.60 92 1003.7
20260506203554 56 5 4.0 10.0 0.11 0.63 0.58 91 1003.5
20260506202057 60 173 0.0 0.0 0.07 0.66 0.53 97 1003.1
20260506200552 60 173 0.0 0.0 0.06 0.64 0.51 97 1003.0
20260506194313 60 173 0.0 0.0 0.06 0.63 0.50 97 1003.0
20260506193545 60 173 0.0 0.0 0.03 0.60 0.47 97 1003.1
20260506191311 60 173 0.0 2.0 0.03 0.59 0.46 98 1003.2
20260506190542 59 173 1.0 5.0 0.06 0.58 0.45 98 1003.3
20260506184311 58 171 0.0 4.0 0.09 0.57 0.44 97 1003.4
20260506183538 58 171 0.0 2.0 0.13 0.57 0.44 97 1003.6
20260506181305 58 171 0.0 5.0 0.17 0.56 0.43 97 1003.8
20260506175805 58 148 0.0 0.0 0.18 0.52 0.40 97 1004.1
20260506174306 58 148 0.0 1.0 0.17 0.48 0.35 96 1004.6
20260506172759 58 146 0.0 2.0 0.21 0.44 0.31 96 1004.6
20260506171259 58 144 0.0 3.0 0.18 0.39 0.26 96 1005.0
20260506165754 58 202 0.0 3.0 0.14 0.34 0.21 96 1004.8
20260506165025 58 187 0.0 4.0 0.12 0.31 0.18 95 1005.0
20260506162747 58 173 0.0 1.0 0.05 0.23 0.10 95 1004.8
20260506161249 58 67 0.0 2.0 0.04 0.21 0.08 95 1005.2
20260506155741 58 163 0.0 3.0 0.03 0.20 0.07 95 1005.3
20260506154243 57 167 0.0 6.0 0.03 0.19 0.06 95 1005.8
20260506152737 57 153 0.0 1.0 0.03 0.18 0.05 96 1006.1
20260506152007 57 160 0.0 2.0 0.03 0.17 0.04 95 1006.3
20260506145730 57 156 0.0 0.0 0.03 0.17 0.04 94 1006.4
20260506144232 57 167 0.0 4.0 0.02 0.16 0.03 93 1006.6
20260506142722 57 128 0.0 3.0 0.01 0.15 0.02 92 1006.5
20260506141225 57 167 0.0 4.0 0.00 0.14 0.01 91 1006.6
20260506135724 57 192 0.0 3.0 0.00 0.14 0.01 92 1006.4
20260506134222 56 137 0.0 4.0 0.00 0.14 0.01 93 1006.3
20260506132723 56 153 0.0 2.0 0.00 0.14 0.01 95 1006.4
20260506131220 55 144 0.0 2.0 0.00 0.14 0.01 97 1006.7
20260506125722 55 216 0.0 0.0 0.00 0.14 0.01 98 1007.1
20260506124222 54 312 0.0 0.0 0.00 0.14 0.01 98 1006.5
20260506122720 54 312 0.0 0.0 0.00 0.14 0.01 98 1006.9
20260506121221 54 312 0.0 0.0 0.00 0.14 0.01 98 1006.9
20260506120453 53 312 0.0 0.0 0.00 0.14 0.01 98 1006.9